N7NKE Weather Reports


time (UTC)temp
C
wind
direction
speed
KPH
gust
KPH
rain 1hr
cm
rain 24hr
cm
rain mn
cm
humidity
%
barometer
mb
20260510210005 19 351 1.6 8.0 0.00 0.00 0.00 50 1019.9
20260510205504 19 11 4.8 11.3 0.00 0.00 0.00 53 1019.9
20260510205005 18 349 1.6 3.2 0.00 0.00 0.00 52 1019.9
20260510204506 18 352 3.2 4.8 0.00 0.00 0.00 55 1019.9
20260510204005 18 66 3.2 4.8 0.00 0.00 0.00 55 1019.8
20260510203505 18 17 1.6 3.2 0.00 0.00 0.00 55 1019.8
20260510203005 18 2 3.2 8.0 0.00 0.00 0.00 56 1019.8
20260510202505 18 8 3.2 4.8 0.00 0.00 0.00 55 1020.0
20260510202005 18 349 3.2 4.8 0.00 0.00 0.00 55 1019.9
20260510201506 18 28 4.8 11.3 0.00 0.00 0.00 57 1019.9
20260510201005 18 57 4.8 9.7 0.00 0.00 0.00 55 1019.9
20260510200505 18 328 6.4 12.9 0.00 0.00 0.00 56 1019.9
20260510200006 18 16 3.2 9.7 0.00 0.00 0.00 56 1019.9
20260510195505 18 32 3.2 9.7 0.00 0.00 0.00 58 1019.7
20260510195005 17 338 4.8 8.0 0.00 0.00 0.00 58 1019.8
20260510194506 17 358 4.8 11.3 0.00 0.00 0.00 56 1019.8
20260510194005 17 19 3.2 9.7 0.00 0.00 0.00 59 1019.8
20260510193505 17 339 3.2 8.0 0.00 0.00 0.00 60 1019.9
20260510193005 17 327 8.0 14.5 0.00 0.00 0.00 58 1019.8
20260510192505 17 329 4.8 11.3 0.00 0.00 0.00 57 1019.7
20260510192005 17 348 4.8 11.3 0.00 0.00 0.00 58 1019.8
20260510191505 17 323 4.8 8.0 0.00 0.00 0.00 59 1019.9
20260510190505 16 0 6.4 11.3 0.00 0.00 0.00 61 1020.0
20260510185505 16 329 4.8 8.0 0.00 0.00 0.00 60 1020.1
20260510185005 16 326 8.0 12.9 0.00 0.00 0.00 60 1019.9
20260510184506 16 330 9.7 14.5 0.00 0.00 0.00 59 1020.0
20260510184005 16 330 8.0 14.5 0.00 0.00 0.00 59 1019.8
20260510183505 16 328 9.7 16.1 0.00 0.00 0.00 58 1019.9
20260510183007 16 336 8.0 14.5 0.00 0.00 0.00 61 1019.7
20260510182505 16 322 6.4 9.7 0.00 0.00 0.00 62 1019.7
20260510181505 16 0 8.0 16.1 0.00 0.00 0.00 61 1019.3
20260510181006 16 350 4.8 16.1 0.00 0.00 0.00 62 1019.2
20260510180504 16 344 4.8 12.9 0.00 0.00 0.00 62 1019.3
20260510180005 16 338 4.8 9.7 0.00 0.00 0.00 61 1019.2
20260510175505 16 324 6.4 16.1 0.00 0.00 0.00 61 1019.2
20260510175005 17 337 4.8 11.3 0.00 0.00 0.00 61 1019.4
20260510174005 17 350 3.2 8.0 0.00 0.00 0.00 61 1019.3
20260510173506 17 319 4.8 8.0 0.00 0.00 0.00 64 1019.3
20260510173008 17 7 4.8 11.3 0.00 0.00 0.00 63 1019.2
20260510172506 17 3 6.4 12.9 0.00 0.00 0.00 65 1019.3
20260510172005 17 335 4.8 9.7 0.00 0.00 0.00 64 1019.4
20260510171505 16 5 3.2 11.3 0.00 0.00 0.00 66 1019.3
20260510171005 16 74 3.2 12.9 0.00 0.00 0.00 65 1019.3
20260510170505 16 346 3.2 9.7 0.00 0.00 0.00 66 1019.1
20260510170005 16 316 4.8 8.0 0.00 0.00 0.00 68 1019.0
20260510165005 15 326 4.8 9.7 0.00 0.00 0.00 67 1019.1
20260510164505 15 337 3.2 9.7 0.00 0.00 0.00 70 1019.0
20260510164005 15 335 6.4 12.9 0.00 0.00 0.00 69 1019.0
20260510163505 15 330 4.8 9.7 0.00 0.00 0.00 68 1019.1
20260510163005 15 333 4.8 9.7 0.00 0.00 0.00 69 1019.0
20260510162005 15 342 3.2 8.0 0.00 0.00 0.00 71 1019.0
20260510161505 15 6 3.2 9.7 0.00 0.00 0.00 72 1019.0
20260510160505 15 327 3.2 8.0 0.00 0.00 0.00 73 1019.1
20260510160005 14 337 3.2 4.8 0.00 0.00 0.00 73 1018.9
20260510155005 14 358 1.6 4.8 0.00 0.00 0.00 76 1018.8
20260510154505 13 326 1.6 8.0 0.00 0.00 0.00 76 1018.7
20260510154005 13 331 3.2 8.0 0.00 0.00 0.00 77 1018.8
20260510153505 13 345 3.2 8.0 0.00 0.00 0.00 77 1018.8
20260510153005 13 15 1.6 4.8 0.00 0.00 0.00 77 1018.6
20260510152504 13 316 1.6 4.8 0.00 0.00 0.00 77 1018.9
20260510152005 13 335 3.2 8.0 0.00 0.00 0.00 77 1018.7
20260510151505 13 329 3.2 8.0 0.00 0.00 0.00 77 1018.4
20260510151005 13 334 4.8 8.0 0.00 0.00 0.00 76 1018.4
20260510150005 12 334 3.2 8.0 0.00 0.00 0.00 78 1018.5
20260510145005 12 336 3.2 8.0 0.00 0.00 0.00 78 1018.4
20260510144505 12 326 3.2 4.8 0.00 0.00 0.00 79 1018.4
20260510144005 12 319 1.6 3.2 0.00 0.00 0.00 79 1018.1
20260510143006 12 338 1.6 3.2 0.00 0.00 0.00 81 1018.1
20260510142505 12 285 1.6 4.8 0.00 0.00 0.00 81 1018.4
20260510142005 11 309 1.6 3.2 0.00 0.00 0.00 82 1018.5
20260510141505 11 307 3.2 4.8 0.00 0.00 0.00 82 1018.1
20260510141005 11 322 3.2 4.8 0.00 0.00 0.00 82 1018.1
20260510135505 11 321 1.6 3.2 0.00 0.00 0.00 83 1018.1
20260510135005 11 314 3.2 4.8 0.00 0.00 0.00 83 1018.0
20260510134505 11 18 1.6 3.2 0.00 0.00 0.00 83 1018.0
20260510134004 11 348 3.2 4.8 0.00 0.00 0.00 84 1017.9
20260510133505 11 343 3.2 8.0 0.00 0.00 0.00 84 1018.0
20260510132505 11 54 0.0 3.2 0.00 0.00 0.00 84 1017.9
20260510132005 11 105 1.6 3.2 0.00 0.00 0.00 84 1017.7
20260510131505 11 69 1.6 4.8 0.00 0.00 0.00 83 1017.5
20260510131005 11 80 3.2 4.8 0.00 0.00 0.00 84 1017.4
20260510130005 11 292 1.6 3.2 0.00 0.00 0.00 83 1017.7
20260510125005 12 350 1.6 3.2 0.00 0.00 0.00 81 1017.4
20260510124005 12 351 1.6 3.2 0.00 0.00 0.00 81 1017.4
20260510123005 12 340 1.6 4.8 0.00 0.00 0.00 82 1017.5
20260510122504 12 346 3.2 4.8 0.00 0.00 0.00 82 1017.4
20260510122005 11 337 4.8 8.0 0.00 0.00 0.00 82 1017.5
20260510121504 11 331 4.8 8.0 0.00 0.00 0.00 83 1017.4
20260510121005 11 332 3.2 4.8 0.00 0.00 0.00 82 1017.4
20260510120505 11 331 3.2 4.8 0.00 0.00 0.00 82 1017.4
20260510115505 12 347 4.8 12.9 0.00 0.00 0.00 82 1017.3
20260510115005 12 333 3.2 9.7 0.00 0.00 0.00 82 1017.5
20260510114504 12 330 4.8 8.0 0.00 0.00 0.00 82 1017.5
20260510113504 12 330 4.8 8.0 0.00 0.00 0.00 82 1017.4
20260510113006 12 330 4.8 8.0 0.00 0.00 0.00 82 1017.5
20260510112505 12 337 3.2 8.0 0.00 0.00 0.00 82 1017.2
20260510112004 12 351 4.8 8.0 0.00 0.00 0.00 82 1017.3
20260510111005 12 329 3.2 4.8 0.00 0.00 0.00 83 1017.3
20260510110505 12 349 3.2 8.0 0.00 0.00 0.00 83 1017.3
20260510105505 12 329 3.2 4.8 0.00 0.00 0.00 83 1017.1
20260510105005 12 344 1.6 4.8 0.00 0.00 0.00 83 1016.9
20260510104505 12 351 4.8 8.0 0.00 0.00 0.00 84 1016.9
20260510104005 12 31 1.6 4.8 0.00 0.00 0.00 84 1017.0
20260510103504 12 71 1.6 3.2 0.00 0.00 0.00 84 1016.9
20260510102505 12 17 1.6 4.8 0.00 0.00 0.00 84 1016.7
20260510102005 12 17 1.6 3.2 0.00 0.00 0.00 84 1016.6
20260510101505 12 29 0.0 1.6 0.00 0.00 0.00 83 1016.5
20260510100504 13 37 1.6 4.8 0.00 0.00 0.00 82 1016.5
20260510100005 13 27 1.6 3.2 0.00 0.00 0.00 82 1016.6
20260510095505 13 336 0.0 3.2 0.00 0.00 0.00 81 1016.5
20260510095005 13 346 3.2 4.8 0.00 0.00 0.00 81 1016.4
20260510094505 13 337 3.2 4.8 0.00 0.00 0.00 81 1016.2
20260510094004 13 36 1.6 3.2 0.00 0.00 0.00 81 1016.2
20260510093505 13 1 1.6 4.8 0.00 0.00 0.00 80 1016.1
20260510093005 13 9 1.6 3.2 0.00 0.00 0.00 79 1015.9
20260510092004 14 118 1.6 4.8 0.00 0.00 0.00 79 1016.2
20260510090005 13 59 1.6 8.0 0.00 0.00 0.00 80 1016.2
20260510085504 13 179 3.2 4.8 0.00 0.00 0.00 79 1016.3
20260510085005 14 183 3.2 4.8 0.00 0.00 0.00 78 1016.3
20260510084504 14 169 1.6 3.2 0.00 0.00 0.00 78 1016.3
20260510083504 15 202 3.2 3.2 0.00 0.00 0.00 76 1016.2
20260510083004 15 209 3.2 4.8 0.00 0.00 0.00 75 1016.1
20260510082504 15 267 0.0 3.2 0.00 0.00 0.00 75 1016.0
20260510081505 15 249 3.2 9.7 0.00 0.00 0.00 74 1015.9
20260510081005 15 312 1.6 3.2 0.00 0.00 0.00 74 1015.9
20260510080505 15 324 3.2 4.8 0.00 0.00 0.00 74 1015.9
20260510080005 15 329 3.2 4.8 0.00 0.00 0.00 74 1015.8
20260510075504 15 331 4.8 8.0 0.00 0.00 0.00 74 1015.9
20260510075005 15 333 4.8 8.0 0.00 0.00 0.00 74 1015.9
20260510074505 15 327 3.2 8.0 0.00 0.00 0.00 74 1015.8
20260510074005 15 331 3.2 4.8 0.00 0.00 0.00 74 1015.8
20260510073505 15 325 3.2 3.2 0.00 0.00 0.00 74 1015.9
20260510073005 15 338 3.2 4.8 0.00 0.00 0.00 73 1015.8
20260510072504 15 352 1.6 3.2 0.00 0.00 0.00 73 1015.8
20260510072005 15 352 1.6 3.2 0.00 0.00 0.00 73 1015.9
20260510071505 16 352 1.6 1.6 0.00 0.00 0.00 72 1015.8
20260510071004 16 352 1.6 1.6 0.00 0.00 0.00 72 1015.8
20260510070505 16 352 1.6 3.2 0.00 0.00 0.00 72 1015.8
20260510065504 16 352 0.0 3.2 0.00 0.00 0.00 69 1015.8
20260510065005 17 352 0.0 3.2 0.00 0.00 0.00 68 1015.8
20260510063505 17 74 0.0 3.2 0.00 0.00 0.00 64 1015.7
20260510063005 18 117 3.2 9.7 0.00 0.00 0.00 62 1015.6
20260510062005 19 140 8.0 9.7 0.00 0.00 0.00 57 1015.5
20260510061505 19 156 1.6 4.8 0.00 0.00 0.00 55 1015.4
20260510061004 19 351 1.6 8.0 0.00 0.00 0.00 56 1015.3
20260510060505 19 349 4.8 9.7 0.00 0.00 0.00 55 1015.2
20260510055504 19 352 4.8 8.0 0.00 0.00 0.00 55 1015.2
20260510053504 18 341 3.2 8.0 0.00 0.00 0.00 57 1015.3
20260510053005 18 331 3.2 8.0 0.00 0.00 0.00 58 1015.3
20260510052504 18 325 1.6 4.8 0.00 0.00 0.00 59 1015.3
20260510052005 18 357 3.2 4.8 0.00 0.00 0.00 59 1015.2
20260510051505 18 325 3.2 3.2 0.00 0.00 0.00 61 1015.3
20260510051005 18 332 1.6 3.2 0.00 0.00 0.00 61 1015.2
20260510050505 18 326 3.2 3.2 0.00 0.00 0.00 62 1015.1
20260510045504 20 27 1.6 3.2 0.00 0.00 0.00 60 1015.2
20260510045005 20 4 1.6 4.8 0.00 0.00 0.00 57 1015.2
20260510044504 20 25 1.6 1.6 0.00 0.00 0.00 55 1015.2
20260510044004 20 26 1.6 4.8 0.00 0.00 0.00 54 1015.2
20260510043505 20 323 3.2 4.8 0.00 0.00 0.00 54 1015.3
20260510042505 20 324 1.6 3.2 0.00 0.00 0.00 55 1015.2
20260510042005 20 325 3.2 4.8 0.00 0.00 0.00 55 1015.1
20260510041505 20 318 4.8 8.0 0.00 0.00 0.00 55 1015.1
20260510040504 20 322 3.2 4.8 0.00 0.00 0.00 53 1015.0
20260510040005 20 324 3.2 4.8 0.00 0.00 0.00 52 1014.9
20260510035505 20 328 3.2 4.8 0.00 0.00 0.00 51 1014.9
20260510035004 20 323 3.2 8.0 0.00 0.00 0.00 51 1014.8
20260510034505 20 325 3.2 4.8 0.00 0.00 0.00 51 1014.7
20260510034004 21 331 4.8 4.8 0.00 0.00 0.00 50 1014.7
20260510033504 21 326 3.2 4.8 0.00 0.00 0.00 49 1014.8
20260510033006 21 322 3.2 8.0 0.00 0.00 0.00 49 1014.7
20260510032505 21 308 4.8 9.7 0.00 0.00 0.00 49 1014.7
20260510031505 21 322 3.2 8.0 0.00 0.00 0.00 49 1014.5
20260510031005 21 329 3.2 4.8 0.00 0.00 0.00 48 1014.6
20260510025505 21 330 4.8 8.0 0.00 0.00 0.00 46 1014.5
20260510025005 21 322 4.8 11.3 0.00 0.00 0.00 45 1014.5
20260510024005 22 329 4.8 8.0 0.00 0.00 0.00 45 1014.4
20260510023504 22 326 4.8 8.0 0.00 0.00 0.00 44 1014.4
20260510023005 22 329 4.8 8.0 0.00 0.00 0.00 44 1014.4
20260510022004 23 332 4.8 8.0 0.00 0.00 0.00 43 1014.4
20260510021505 23 334 6.4 11.3 0.00 0.00 0.00 42 1014.3
20260510021004 23 337 8.0 11.3 0.00 0.00 0.00 42 1014.3
20260510020005 23 336 3.2 4.8 0.00 0.00 0.00 45 1014.4
20260510015505 23 325 3.2 3.2 0.00 0.00 0.00 48 1014.4
20260510014504 24 0 3.2 8.0 0.00 0.00 0.00 48 1014.4
20260510014005 24 335 1.6 3.2 0.00 0.00 0.00 48 1014.5
20260510013005 25 6 1.6 3.2 0.00 0.00 0.00 48 1014.5
20260510012505 25 14 3.2 4.8 0.00 0.00 0.00 45 1014.4
20260510012005 26 60 3.2 11.3 0.00 0.00 0.00 46 1014.4
20260510011505 26 64 4.8 8.0 0.00 0.00 0.00 36 1014.4
20260510011005 26 339 1.6 3.2 0.00 0.00 0.00 27 1014.3
20260510010504 26 321 1.6 3.2 0.00 0.00 0.00 28 1014.4
20260510005504 26 353 1.6 3.2 0.00 0.00 0.00 31 1014.5
20260510004505 26 299 1.6 3.2 0.00 0.00 0.00 29 1014.6
20260510003005 26 269 1.6 1.6 0.00 0.00 0.00 31 1014.7
20260510002504 26 13 1.6 3.2 0.00 0.00 0.00 32 1014.7
20260510001504 26 354 3.2 4.8 0.00 0.00 0.00 28 1014.7
20260510001004 26 5 3.2 3.2 0.00 0.00 0.00 29 1014.8
20260510000505 26 326 3.2 8.0 0.00 0.00 0.00 28 1014.8
20260510000005 26 333 3.2 4.8 0.00 0.00 0.00 32 1014.9
20260509235504 26 10 0.0 3.2 0.00 0.00 0.00 32 1014.9
20260509235004 26 294 1.6 1.6 0.00 0.00 0.00 31 1015.0
20260509234005 26 303 1.6 3.2 0.00 0.00 0.00 30 1015.1
20260509233504 26 6 3.2 4.8 0.00 0.00 0.00 29 1015.1
20260509232504 26 16 3.2 4.8 0.00 0.00 0.00 27 1015.2
20260509232004 26 320 1.6 3.2 0.00 0.00 0.00 29 1015.3
20260509231505 26 329 3.2 4.8 0.00 0.00 0.00 29 1015.4
20260509231004 26 351 1.6 3.2 0.00 0.00 0.00 33 1015.5
20260509230504 25 27 1.6 4.8 0.00 0.00 0.00 35 1015.5
20260509230005 25 94 1.6 4.8 0.00 0.00 0.00 34 1015.7
20260509225505 25 6 1.6 3.2 0.00 0.00 0.00 37 1015.8
20260509225004 25 21 1.6 3.2 0.00 0.00 0.00 36 1015.9
20260509224504 25 346 3.2 4.8 0.00 0.00 0.00 35 1015.9
20260509223504 25 42 1.6 4.8 0.00 0.00 0.00 37 1016.0
20260509223005 25 22 3.2 4.8 0.00 0.00 0.00 36 1016.2
20260509222505 25 20 4.8 8.0 0.00 0.00 0.00 33 1016.3
20260509222004 25 24 3.2 8.0 0.00 0.00 0.00 34 1016.4
20260509221506 25 293 1.6 4.8 0.00 0.00 0.00 34 1016.6
20260509221005 25 3 3.2 8.0 0.00 0.00 0.00 33 1016.6
20260509220504 25 61 1.6 8.0 0.00 0.00 0.00 35 1016.7
20260509220005 25 4 1.6 4.8 0.00 0.00 0.00 32 1016.9
20260509215505 24 4 3.2 4.8 0.00 0.00 0.00 30 1017.0
20260509215005 24 335 3.2 8.0 0.00 0.00 0.00 31 1017.1
20260509214504 24 354 4.8 11.3 0.00 0.00 0.00 36 1017.1
20260509214004 24 37 1.6 4.8 0.00 0.00 0.00 39 1017.1
20260509213505 23 334 3.2 9.7 0.00 0.00 0.00 36 1017.2
20260509213006 23 22 4.8 11.3 0.00 0.00 0.00 36 1017.2
20260509211505 23 349 3.2 9.7 0.00 0.00 0.00 40 1017.3
20260509211004 23 356 3.2 9.7 0.00 0.00 0.00 42 1017.4
20260509210504 23 352 3.2 14.5 0.00 0.00 0.00 39 1017.5